| time (UTC) | temp F | wind direction | speed MPH | gust MPH | rain 1hr in | rain 24hr in | rain mn in | humidity % | barometer mb |
| 20260505200814 | 76 | 206 | 2.0 | 9.0 | 0.00 | 0.00 | 0.00 | 41 | 1013.6 |
| 20260505200309 | 77 | 78 | 2.0 | 9.0 | 0.00 | 0.00 | 0.00 | 39 | 1013.9 |
| 20260505195805 | 76 | 103 | 2.0 | 9.0 | 0.00 | 0.00 | 0.00 | 40 | 1013.7 |
| 20260505195258 | 76 | 348 | 2.0 | 8.0 | 0.00 | 0.00 | 0.00 | 40 | 1013.7 |
| 20260505194751 | 76 | 323 | 2.0 | 8.0 | 0.00 | 0.00 | 0.00 | 45 | 1013.8 |
| 20260505194246 | 76 | 121 | 3.0 | 9.0 | 0.00 | 0.00 | 0.00 | 39 | 1013.9 |
| 20260505194227 | 76 | 105 | 2.0 | 10.0 | 0.00 | 0.00 | 0.00 | 39 | 1014.0 |
| 20260505193233 | 76 | 107 | 2.0 | 10.0 | 0.00 | 0.00 | 0.00 | 40 | 1014.0 |
| 20260505192729 | 75 | 342 | 3.0 | 11.0 | 0.00 | 0.00 | 0.00 | 41 | 1014.0 |
| 20260505192220 | 76 | 124 | 3.0 | 11.0 | 0.00 | 0.00 | 0.00 | 40 | 1014.2 |
| 20260505191716 | 76 | 128 | 2.0 | 9.0 | 0.00 | 0.00 | 0.00 | 44 | 1014.2 |
| 20260505191209 | 76 | 100 | 2.0 | 7.0 | 0.00 | 0.00 | 0.00 | 44 | 1014.3 |
| 20260505190704 | 76 | 101 | 3.0 | 13.0 | 0.00 | 0.00 | 0.00 | 43 | 1014.6 |
| 20260505190159 | 75 | 142 | 3.0 | 13.0 | 0.00 | 0.00 | 0.00 | 44 | 1014.6 |
| 20260505185917 | 75 | 338 | 3.0 | 9.0 | 0.00 | 0.00 | 0.00 | 47 | 1014.6 |
| 20260505185156 | 75 | 59 | 3.0 | 9.0 | 0.00 | 0.00 | 0.00 | 41 | 1014.7 |
| 20260505184655 | 75 | 159 | 3.0 | 9.0 | 0.00 | 0.00 | 0.00 | 45 | 1014.7 |
| 20260505184156 | 75 | 59 | 2.0 | 8.0 | 0.00 | 0.00 | 0.00 | 41 | 1014.6 |
| 20260505183655 | 75 | 189 | 2.0 | 9.0 | 0.00 | 0.00 | 0.00 | 43 | 1014.8 |
| 20260505183418 | 75 | 207 | 3.0 | 9.0 | 0.00 | 0.00 | 0.00 | 41 | 1014.7 |
| 20260505182655 | 75 | 131 | 3.0 | 9.0 | 0.00 | 0.00 | 0.00 | 40 | 1014.9 |
| 20260505182155 | 75 | 105 | 3.0 | 10.0 | 0.00 | 0.00 | 0.00 | 40 | 1014.9 |
| 20260505181654 | 75 | 61 | 2.0 | 10.0 | 0.00 | 0.00 | 0.00 | 41 | 1015.1 |
| 20260505181156 | 74 | 215 | 3.0 | 11.0 | 0.00 | 0.00 | 0.00 | 41 | 1015.1 |
| 20260505180655 | 74 | 107 | 4.0 | 12.0 | 0.00 | 0.00 | 0.00 | 41 | 1015.3 |
| 20260505180153 | 74 | 102 | 3.0 | 12.0 | 0.00 | 0.00 | 0.00 | 43 | 1015.2 |
| 20260505175653 | 74 | 128 | 4.0 | 13.0 | 0.00 | 0.00 | 0.00 | 43 | 1015.5 |
| 20260505175153 | 74 | 46 | 4.0 | 13.0 | 0.00 | 0.00 | 0.00 | 39 | 1015.7 |
| 20260505174919 | 74 | 104 | 3.0 | 12.0 | 0.00 | 0.00 | 0.00 | 43 | 1015.6 |
| 20260505174421 | 74 | 130 | 3.0 | 8.0 | 0.00 | 0.00 | 0.00 | 43 | 1015.7 |
| 20260505173656 | 73 | 145 | 3.0 | 7.0 | 0.00 | 0.00 | 0.00 | 44 | 1015.7 |
| 20260505173413 | 73 | 63 | 3.0 | 8.0 | 0.00 | 0.00 | 0.00 | 47 | 1015.7 |
| 20260505172644 | 73 | 214 | 3.0 | 9.0 | 0.00 | 0.00 | 0.00 | 47 | 1015.6 |
| 20260505172137 | 73 | 107 | 3.0 | 10.0 | 0.00 | 0.00 | 0.00 | 49 | 1015.8 |
| 20260505171633 | 73 | 293 | 3.0 | 10.0 | 0.00 | 0.00 | 0.00 | 48 | 1015.9 |
| 20260505171126 | 73 | 101 | 3.0 | 11.0 | 0.00 | 0.00 | 0.00 | 47 | 1015.9 |
| 20260505171034 | 73 | 136 | 4.0 | 12.0 | 0.00 | 0.00 | 0.00 | 46 | 1015.8 |
| 20260505170655 | 73 | 232 | 3.0 | 11.0 | 0.00 | 0.00 | 0.00 | 46 | 1015.8 |
| 20260505170204 | 73 | 26 | 4.0 | 8.0 | 0.00 | 0.00 | 0.00 | 45 | 1015.8 |
| 20260505165114 | 73 | 124 | 3.0 | 12.0 | 0.00 | 0.00 | 0.00 | 43 | 1015.8 |
| 20260505165057 | 73 | 146 | 3.0 | 10.0 | 0.00 | 0.00 | 0.00 | 44 | 1015.7 |
| 20260505164111 | 72 | 138 | 2.0 | 10.0 | 0.00 | 0.00 | 0.00 | 45 | 1015.8 |
| 20260505163612 | 72 | 348 | 3.0 | 9.0 | 0.00 | 0.00 | 0.00 | 47 | 1015.8 |
| 20260505163109 | 72 | 105 | 4.0 | 10.0 | 0.00 | 0.00 | 0.00 | 47 | 1015.9 |
| 20260505162608 | 72 | 138 | 3.0 | 13.0 | 0.00 | 0.00 | 0.00 | 46 | 1015.9 |
| 20260505162111 | 72 | 113 | 3.0 | 13.0 | 0.00 | 0.00 | 0.00 | 48 | 1016.1 |
| 20260505161610 | 72 | 74 | 3.0 | 9.0 | 0.00 | 0.00 | 0.00 | 45 | 1016.0 |
| 20260505161109 | 72 | 103 | 3.0 | 9.0 | 0.00 | 0.00 | 0.00 | 48 | 1016.0 |
| 20260505160608 | 71 | 108 | 2.0 | 7.0 | 0.00 | 0.00 | 0.00 | 49 | 1015.9 |
| 20260505160110 | 71 | 30 | 3.0 | 9.0 | 0.00 | 0.00 | 0.00 | 47 | 1016.0 |
| 20260505153334 | 70 | 119 | 2.0 | 6.0 | 0.00 | 0.00 | 0.00 | 58 | 1016.1 |
| 20260505152606 | 69 | 38 | 2.0 | 6.0 | 0.00 | 0.00 | 0.00 | 55 | 1016.2 |
| 20260505152105 | 69 | 182 | 1.0 | 6.0 | 0.00 | 0.00 | 0.00 | 60 | 1016.3 |
| 20260505151604 | 69 | 177 | 2.0 | 6.0 | 0.00 | 0.00 | 0.00 | 58 | 1016.3 |
| 20260505151106 | 69 | 135 | 2.0 | 4.0 | 0.00 | 0.00 | 0.00 | 57 | 1016.5 |
| 20260505150601 | 68 | 65 | 2.0 | 4.0 | 0.00 | 0.00 | 0.00 | 60 | 1016.5 |
| 20260505140601 | 65 | 334 | 1.0 | 4.0 | 0.00 | 0.00 | 0.00 | 60 | 1016.1 |
| 20260505125002 | 51 | 315 | 0.0 | 1.0 | 0.00 | 0.00 | 0.00 | 91 | 1015.7 |
| 20260505124456 | 50 | 315 | 0.0 | 2.0 | 0.00 | 0.00 | 0.00 | 91 | 1015.6 |
| 20260505123949 | 50 | 311 | 1.0 | 2.0 | 0.00 | 0.00 | 0.00 | 92 | 1015.6 |
| 20260505123444 | 49 | 0 | 0.0 | 2.0 | 0.00 | 0.00 | 0.00 | 92 | 1015.6 |
| 20260505123203 | 49 | 313 | 0.0 | 4.0 | 0.00 | 0.00 | 0.00 | 92 | 1015.7 |
| 20260505122431 | 48 | 313 | 1.0 | 4.0 | 0.00 | 0.00 | 0.00 | 93 | 1015.6 |
| 20260505121926 | 47 | 313 | 0.0 | 3.0 | 0.00 | 0.00 | 0.00 | 92 | 1015.5 |
| 20260505121420 | 47 | 107 | 0.0 | 0.0 | 0.00 | 0.00 | 0.00 | 92 | 1015.6 |
| 20260505120913 | 46 | 106 | 0.0 | 0.0 | 0.00 | 0.00 | 0.00 | 92 | 1015.7 |
| 20260505120409 | 46 | 107 | 0.0 | 0.0 | 0.00 | 0.00 | 0.00 | 92 | 1015.7 |
| 20260505120130 | 46 | 107 | 0.0 | 0.0 | 0.00 | 0.00 | 0.00 | 92 | 1015.5 |
| 20260505115356 | 45 | 106 | 0.0 | 0.0 | 0.00 | 0.00 | 0.00 | 92 | 1015.4 |
| 20260505114851 | 45 | 106 | 0.0 | 0.0 | 0.00 | 0.00 | 0.00 | 92 | 1015.4 |
| 20260505114343 | 45 | 106 | 0.0 | 0.0 | 0.00 | 0.00 | 0.00 | 92 | 1015.1 |
| 20260505113838 | 44 | 106 | 0.0 | 0.0 | 0.00 | 0.00 | 0.00 | 92 | 1015.0 |
| 20260505113333 | 44 | 106 | 0.0 | 0.0 | 0.00 | 0.00 | 0.00 | 92 | 1014.9 |
| 20260505112824 | 44 | 106 | 0.0 | 0.0 | 0.00 | 0.00 | 0.00 | 91 | 1014.9 |
| 20260505112319 | 44 | 106 | 0.0 | 0.0 | 0.00 | 0.00 | 0.00 | 91 | 1014.7 |
| 20260505111815 | 44 | 106 | 0.0 | 0.0 | 0.00 | 0.00 | 0.00 | 90 | 1014.7 |
| 20260505111307 | 44 | 106 | 0.0 | 0.0 | 0.00 | 0.00 | 0.00 | 90 | 1014.7 |
| 20260505110802 | 44 | 106 | 0.0 | 0.0 | 0.00 | 0.00 | 0.00 | 90 | 1014.7 |
| 20260505110256 | 44 | 106 | 0.0 | 0.0 | 0.00 | 0.00 | 0.00 | 90 | 1014.7 |
| 20260505102208 | 44 | 106 | 0.0 | 0.0 | 0.00 | 0.00 | 0.00 | 90 | 1014.3 |
| 20260505101702 | 44 | 106 | 0.0 | 0.0 | 0.00 | 0.00 | 0.00 | 90 | 1014.4 |
| 20260505101156 | 44 | 106 | 0.0 | 0.0 | 0.00 | 0.00 | 0.00 | 89 | 1014.6 |
| 20260505100650 | 44 | 106 | 0.0 | 0.0 | 0.00 | 0.00 | 0.00 | 90 | 1014.7 |
| 20260505100359 | 44 | 106 | 0.0 | 0.0 | 0.00 | 0.00 | 0.00 | 90 | 1014.7 |
| 20260505095638 | 44 | 106 | 0.0 | 0.0 | 0.00 | 0.00 | 0.00 | 90 | 1014.7 |
| 20260505095132 | 44 | 106 | 0.0 | 0.0 | 0.00 | 0.00 | 0.00 | 90 | 1014.6 |
| 20260505094626 | 44 | 106 | 0.0 | 0.0 | 0.00 | 0.00 | 0.00 | 89 | 1014.7 |
| 20260505094121 | 44 | 106 | 0.0 | 0.0 | 0.00 | 0.00 | 0.00 | 90 | 1014.7 |
| 20260505093614 | 44 | 106 | 0.0 | 0.0 | 0.00 | 0.00 | 0.00 | 90 | 1014.7 |
| 20260505093108 | 44 | 106 | 0.0 | 0.0 | 0.00 | 0.00 | 0.00 | 89 | 1014.6 |
| 20260505092602 | 45 | 106 | 0.0 | 0.0 | 0.00 | 0.00 | 0.00 | 90 | 1014.8 |
| 20260505092056 | 44 | 106 | 0.0 | 0.0 | 0.00 | 0.00 | 0.00 | 90 | 1014.7 |
| 20260505091549 | 44 | 106 | 0.0 | 0.0 | 0.00 | 0.00 | 0.00 | 90 | 1014.8 |
| 20260505091045 | 44 | 106 | 0.0 | 0.0 | 0.00 | 0.00 | 0.00 | 90 | 1014.8 |
| 20260505090801 | 44 | 106 | 0.0 | 0.0 | 0.00 | 0.00 | 0.00 | 90 | 1014.9 |
| 20260505090032 | 44 | 106 | 0.0 | 1.0 | 0.00 | 0.00 | 0.00 | 89 | 1014.8 |
| 20260505085526 | 44 | 106 | 0.0 | 1.0 | 0.00 | 0.00 | 0.00 | 89 | 1014.9 |
| 20260505085020 | 44 | 106 | 0.0 | 1.0 | 0.00 | 0.00 | 0.00 | 89 | 1014.9 |
| 20260505084513 | 44 | 109 | 0.0 | 0.0 | 0.00 | 0.00 | 0.00 | 89 | 1014.9 |
| 20260505084008 | 44 | 109 | 0.0 | 0.0 | 0.00 | 0.00 | 0.00 | 89 | 1015.0 |
| 20260505083502 | 45 | 109 | 0.0 | 1.0 | 0.00 | 0.00 | 0.00 | 89 | 1014.9 |
| 20260505082956 | 45 | 109 | 0.0 | 1.0 | 0.00 | 0.00 | 0.00 | 89 | 1015.0 |
| 20260505082448 | 45 | 109 | 0.0 | 1.0 | 0.00 | 0.00 | 0.00 | 89 | 1015.0 |
| 20260505081944 | 45 | 109 | 0.0 | 0.0 | 0.00 | 0.00 | 0.00 | 89 | 1014.9 |
| 20260505081437 | 45 | 109 | 0.0 | 0.0 | 0.00 | 0.00 | 0.00 | 89 | 1014.9 |
| 20260505080932 | 45 | 109 | 0.0 | 0.0 | 0.00 | 0.00 | 0.00 | 89 | 1015.0 |
| 20260505080426 | 45 | 109 | 0.0 | 1.0 | 0.00 | 0.00 | 0.00 | 89 | 1015.0 |
| 20260505075918 | 45 | 109 | 0.0 | 1.0 | 0.00 | 0.00 | 0.00 | 89 | 1014.9 |
| 20260505075641 | 45 | 109 | 0.0 | 1.0 | 0.00 | 0.00 | 0.00 | 89 | 1014.9 |
| 20260505075129 | 45 | 109 | 0.0 | 1.0 | 0.00 | 0.00 | 0.00 | 89 | 1015.0 |
| 20260505074402 | 45 | 109 | 0.0 | 1.0 | 0.00 | 0.00 | 0.00 | 88 | 1015.0 |
| 20260505073856 | 45 | 109 | 0.0 | 1.0 | 0.00 | 0.00 | 0.00 | 89 | 1014.9 |
| 20260505073349 | 46 | 109 | 0.0 | 1.0 | 0.00 | 0.00 | 0.00 | 89 | 1014.9 |
| 20260505072843 | 46 | 109 | 0.0 | 1.0 | 0.00 | 0.00 | 0.00 | 88 | 1015.0 |
| 20260505072338 | 46 | 109 | 0.0 | 1.0 | 0.00 | 0.00 | 0.00 | 88 | 1015.0 |
| 20260505071832 | 46 | 109 | 0.0 | 0.0 | 0.00 | 0.00 | 0.00 | 88 | 1014.9 |
| 20260505071531 | 46 | 109 | 0.0 | 0.0 | 0.00 | 0.00 | 0.00 | 88 | 1014.9 |
| 20260505071415 | 46 | 109 | 0.0 | 0.0 | 0.00 | 0.00 | 0.00 | 88 | 1015.0 |
| 20260505070315 | 46 | 109 | 0.0 | 0.0 | 0.00 | 0.00 | 0.00 | 88 | 1014.9 |
| 20260505065808 | 46 | 109 | 0.0 | 1.0 | 0.00 | 0.00 | 0.00 | 88 | 1014.9 |
| 20260505065304 | 46 | 109 | 0.0 | 1.0 | 0.00 | 0.00 | 0.00 | 88 | 1015.0 |
| 20260505064755 | 46 | 109 | 0.0 | 1.0 | 0.00 | 0.00 | 0.00 | 87 | 1015.0 |
| 20260505064251 | 47 | 109 | 0.0 | 0.0 | 0.00 | 0.00 | 0.00 | 87 | 1014.9 |
| 20260505063745 | 47 | 109 | 0.0 | 0.0 | 0.00 | 0.00 | 0.00 | 87 | 1014.8 |
| 20260505063238 | 47 | 109 | 0.0 | 0.0 | 0.00 | 0.00 | 0.00 | 87 | 1014.8 |
| 20260505062955 | 47 | 109 | 0.0 | 1.0 | 0.00 | 0.00 | 0.00 | 87 | 1014.9 |
| 20260505062226 | 47 | 109 | 0.0 | 1.0 | 0.00 | 0.00 | 0.00 | 87 | 1015.0 |
| 20260505061720 | 47 | 109 | 0.0 | 1.0 | 0.00 | 0.00 | 0.00 | 87 | 1015.1 |
| 20260505061438 | 47 | 109 | 0.0 | 1.0 | 0.00 | 0.00 | 0.00 | 87 | 1015.1 |
| 20260505060708 | 47 | 109 | 0.0 | 1.0 | 0.00 | 0.00 | 0.00 | 87 | 1015.2 |
| 20260505060201 | 47 | 109 | 0.0 | 0.0 | 0.00 | 0.00 | 0.00 | 87 | 1015.2 |
| 20260505055916 | 47 | 109 | 0.0 | 0.0 | 0.00 | 0.00 | 0.00 | 87 | 1015.2 |
| 20260505055642 | 47 | 109 | 0.0 | 1.0 | 0.00 | 0.00 | 0.00 | 87 | 1015.3 |
| 20260505054642 | 47 | 109 | 0.0 | 1.0 | 0.00 | 0.00 | 0.00 | 87 | 1015.2 |
| 20260505054137 | 47 | 109 | 0.0 | 2.0 | 0.00 | 0.00 | 0.00 | 87 | 1015.2 |
| 20260505053632 | 47 | 109 | 0.0 | 2.0 | 0.00 | 0.00 | 0.00 | 87 | 1015.2 |
| 20260505053124 | 47 | 109 | 0.0 | 1.0 | 0.00 | 0.00 | 0.00 | 87 | 1015.2 |
| 20260505052841 | 47 | 109 | 0.0 | 2.0 | 0.00 | 0.00 | 0.00 | 87 | 1015.3 |
| 20260505052115 | 48 | 109 | 0.0 | 2.0 | 0.00 | 0.00 | 0.00 | 86 | 1015.3 |
| 20260505051607 | 48 | 109 | 0.0 | 1.0 | 0.00 | 0.00 | 0.00 | 86 | 1015.3 |
| 20260505051102 | 48 | 109 | 0.0 | 1.0 | 0.00 | 0.00 | 0.00 | 86 | 1015.2 |
| 20260505050823 | 48 | 109 | 0.0 | 1.0 | 0.00 | 0.00 | 0.00 | 86 | 1015.2 |
| 20260505041451 | 49 | 109 | 0.0 | 1.0 | 0.00 | 0.00 | 0.00 | 85 | 1015.1 |
| 20260505040952 | 50 | 109 | 0.0 | 0.0 | 0.00 | 0.00 | 0.00 | 85 | 1015.1 |
| 20260505040451 | 50 | 109 | 0.0 | 1.0 | 0.00 | 0.00 | 0.00 | 85 | 1015.1 |
| 20260505035947 | 50 | 109 | 0.0 | 1.0 | 0.00 | 0.00 | 0.00 | 84 | 1015.1 |
| 20260505035449 | 50 | 109 | 0.0 | 0.0 | 0.00 | 0.00 | 0.00 | 84 | 1015.1 |
| 20260505034946 | 50 | 109 | 0.0 | 0.0 | 0.00 | 0.00 | 0.00 | 84 | 1015.1 |
| 20260505034447 | 51 | 109 | 0.0 | 1.0 | 0.00 | 0.00 | 0.00 | 84 | 1015.2 |
| 20260505033944 | 51 | 109 | 0.0 | 1.0 | 0.00 | 0.00 | 0.00 | 84 | 1015.2 |
| 20260505033445 | 51 | 109 | 0.0 | 1.0 | 0.00 | 0.00 | 0.00 | 84 | 1015.2 |
| 20260505033436 | 51 | 109 | 0.0 | 1.0 | 0.00 | 0.00 | 0.00 | 84 | 1015.3 |
| 20260505032443 | 51 | 109 | 0.0 | 0.0 | 0.00 | 0.00 | 0.00 | 84 | 1015.4 |
| 20260505032204 | 51 | 109 | 0.0 | 1.0 | 0.00 | 0.00 | 0.00 | 83 | 1015.3 |
| 20260505031440 | 52 | 109 | 0.0 | 1.0 | 0.00 | 0.00 | 0.00 | 83 | 1015.3 |
| 20260505030933 | 52 | 109 | 0.0 | 0.0 | 0.00 | 0.00 | 0.00 | 83 | 1015.2 |
| 20260505030427 | 52 | 109 | 0.0 | 0.0 | 0.00 | 0.00 | 0.00 | 83 | 1015.3 |
| 20260505025925 | 52 | 109 | 0.0 | 0.0 | 0.00 | 0.00 | 0.00 | 83 | 1015.2 |
| 20260505025425 | 53 | 109 | 0.0 | 0.0 | 0.00 | 0.00 | 0.00 | 83 | 1015.2 |
| 20260505024926 | 53 | 109 | 0.0 | 0.0 | 0.00 | 0.00 | 0.00 | 82 | 1015.2 |
| 20260505024647 | 53 | 109 | 0.0 | 0.0 | 0.00 | 0.00 | 0.00 | 82 | 1015.2 |
| 20260505023923 | 53 | 109 | 0.0 | 0.0 | 0.00 | 0.00 | 0.00 | 81 | 1015.2 |
| 20260505023423 | 54 | 109 | 0.0 | 0.0 | 0.00 | 0.00 | 0.00 | 80 | 1015.1 |
| 20260505022921 | 54 | 109 | 0.0 | 0.0 | 0.00 | 0.00 | 0.00 | 80 | 1015.1 |
| 20260505022420 | 54 | 109 | 0.0 | 1.0 | 0.00 | 0.00 | 0.00 | 80 | 1015.0 |
| 20260505022142 | 54 | 109 | 0.0 | 1.0 | 0.00 | 0.00 | 0.00 | 79 | 1015.1 |
| 20260505021643 | 55 | 109 | 0.0 | 0.0 | 0.00 | 0.00 | 0.00 | 78 | 1015.0 |
| 20260505020915 | 55 | 109 | 0.0 | 0.0 | 0.00 | 0.00 | 0.00 | 79 | 1015.0 |
| 20260505020634 | 55 | 109 | 0.0 | 0.0 | 0.00 | 0.00 | 0.00 | 79 | 1015.0 |
| 20260505015909 | 56 | 109 | 0.0 | 0.0 | 0.00 | 0.00 | 0.00 | 79 | 1014.9 |
| 20260505015408 | 56 | 109 | 0.0 | 1.0 | 0.00 | 0.00 | 0.00 | 79 | 1014.9 |
| 20260505014905 | 56 | 109 | 0.0 | 1.0 | 0.00 | 0.00 | 0.00 | 78 | 1014.9 |
| 20260505014403 | 56 | 109 | 0.0 | 1.0 | 0.00 | 0.00 | 0.00 | 78 | 1014.7 |
| 20260505013902 | 57 | 109 | 0.0 | 1.0 | 0.00 | 0.00 | 0.00 | 78 | 1014.6 |
| 20260505013400 | 57 | 109 | 0.0 | 1.0 | 0.00 | 0.00 | 0.00 | 77 | 1014.4 |
| 20260505012859 | 57 | 109 | 0.0 | 1.0 | 0.00 | 0.00 | 0.00 | 77 | 1014.4 |
| 20260505012354 | 58 | 109 | 1.0 | 2.0 | 0.00 | 0.00 | 0.00 | 76 | 1014.4 |
| 20260505011847 | 58 | 109 | 0.0 | 2.0 | 0.00 | 0.00 | 0.00 | 77 | 1014.4 |
| 20260505011341 | 58 | 109 | 0.0 | 2.0 | 0.00 | 0.00 | 0.00 | 76 | 1014.3 |
| 20260505010837 | 59 | 109 | 0.0 | 2.0 | 0.00 | 0.00 | 0.00 | 75 | 1014.3 |
| 20260505010330 | 59 | 109 | 0.0 | 1.0 | 0.00 | 0.00 | 0.00 | 74 | 1014.3 |
| 20260505005823 | 60 | 109 | 0.0 | 1.0 | 0.00 | 0.00 | 0.00 | 73 | 1014.3 |
| 20260505005318 | 60 | 109 | 0.0 | 1.0 | 0.00 | 0.00 | 0.00 | 73 | 1014.2 |
| 20260505004812 | 61 | 109 | 0.0 | 1.0 | 0.00 | 0.00 | 0.00 | 72 | 1014.2 |
| 20260505004306 | 62 | 109 | 0.0 | 1.0 | 0.00 | 0.00 | 0.00 | 70 | 1014.2 |
| 20260505003758 | 62 | 109 | 0.0 | 1.0 | 0.00 | 0.00 | 0.00 | 69 | 1014.1 |
| 20260505003254 | 63 | 109 | 0.0 | 1.0 | 0.00 | 0.00 | 0.00 | 69 | 1014.1 |
| 20260505002746 | 63 | 109 | 0.0 | 1.0 | 0.00 | 0.00 | 0.00 | 69 | 1014.0 |
| 20260505002241 | 64 | 109 | 0.0 | 1.0 | 0.00 | 0.00 | 0.00 | 68 | 1014.0 |
| 20260505001736 | 64 | 111 | 0.0 | 1.0 | 0.00 | 0.00 | 0.00 | 67 | 1014.0 |
| 20260505001229 | 65 | 109 | 0.0 | 1.0 | 0.00 | 0.00 | 0.00 | 67 | 1014.0 |
| 20260505000724 | 65 | 109 | 0.0 | 1.0 | 0.00 | 0.00 | 0.00 | 67 | 1013.9 |
| 20260505000219 | 66 | 109 | 0.0 | 1.0 | 0.00 | 0.00 | 0.00 | 65 | 1013.9 |
| 20260504235930 | 66 | 109 | 0.0 | 0.0 | 0.00 | 0.00 | 0.00 | 65 | 1014.0 |
| 20260504235206 | 67 | 109 | 0.0 | 1.0 | 0.00 | 0.00 | 0.00 | 63 | 1013.9 |
| 20260504234700 | 67 | 109 | 0.0 | 1.0 | 0.00 | 0.00 | 0.00 | 61 | 1014.0 |
| 20260504234351 | 68 | 109 | 0.0 | 0.0 | 0.00 | 0.00 | 0.00 | 59 | 1014.0 |
| 20260504234241 | 68 | 109 | 0.0 | 1.0 | 0.00 | 0.00 | 0.00 | 61 | 1014.0 |
| 20260504233142 | 68 | 109 | 0.0 | 0.0 | 0.00 | 0.00 | 0.00 | 58 | 1014.0 |
| 20260504232636 | 69 | 109 | 0.0 | 1.0 | 0.00 | 0.00 | 0.00 | 57 | 1014.0 |
| 20260504232130 | 69 | 109 | 0.0 | 1.0 | 0.00 | 0.00 | 0.00 | 55 | 1014.0 |
| 20260504231624 | 70 | 109 | 0.0 | 0.0 | 0.00 | 0.00 | 0.00 | 54 | 1014.0 |
| 20260504231117 | 70 | 109 | 0.0 | 1.0 | 0.00 | 0.00 | 0.00 | 53 | 1013.9 |
| 20260504230612 | 70 | 109 | 0.0 | 1.0 | 0.00 | 0.00 | 0.00 | 52 | 1013.8 |
| 20260504230334 | 71 | 109 | 1.0 | 3.0 | 0.00 | 0.00 | 0.00 | 53 | 1013.8 |
| 20260504225559 | 71 | 109 | 1.0 | 3.0 | 0.00 | 0.00 | 0.00 | 50 | 1013.9 |
| 20260504225052 | 71 | 111 | 1.0 | 4.0 | 0.00 | 0.00 | 0.00 | 49 | 1014.0 |
| 20260504224548 | 71 | 76 | 1.0 | 4.0 | 0.00 | 0.00 | 0.00 | 47 | 1013.9 |
| 20260504224041 | 71 | 108 | 1.0 | 4.0 | 0.00 | 0.00 | 0.00 | 44 | 1014.0 |
| 20260504223534 | 71 | 108 | 1.0 | 4.0 | 0.00 | 0.00 | 0.00 | 45 | 1014.0 |
| 20260504223030 | 71 | 138 | 1.0 | 4.0 | 0.00 | 0.00 | 0.00 | 47 | 1014.0 |
| 20260504222750 | 71 | 32 | 2.0 | 8.0 | 0.00 | 0.00 | 0.00 | 47 | 1014.0 |
| 20260504222018 | 71 | 123 | 2.0 | 8.0 | 0.00 | 0.00 | 0.00 | 50 | 1014.1 |
| 20260504221732 | 72 | 87 | 2.0 | 9.0 | 0.00 | 0.00 | 0.00 | 46 | 1014.0 |
| 20260504221006 | 72 | 94 | 2.0 | 9.0 | 0.00 | 0.00 | 0.00 | 46 | 1014.0 |
| 20260504220500 | 72 | 123 | 2.0 | 8.0 | 0.00 | 0.00 | 0.00 | 45 | 1014.0 |
| 20260504215952 | 72 | 58 | 1.0 | 7.0 | 0.00 | 0.00 | 0.00 | 44 | 1013.9 |
| 20260504215448 | 73 | 296 | 1.0 | 3.0 | 0.00 | 0.00 | 0.00 | 47 | 1013.9 |
| 20260504214942 | 73 | 71 | 2.0 | 5.0 | 0.00 | 0.00 | 0.00 | 45 | 1013.8 |
| 20260504214434 | 73 | 42 | 2.0 | 5.0 | 0.00 | 0.00 | 0.00 | 46 | 1013.8 |
| 20260504213929 | 73 | 104 | 1.0 | 4.0 | 0.00 | 0.00 | 0.00 | 43 | 1013.8 |
| 20260504213424 | 73 | 221 | 1.0 | 7.0 | 0.00 | 0.00 | 0.00 | 44 | 1013.8 |
| 20260504213141 | 74 | 209 | 2.0 | 7.0 | 0.00 | 0.00 | 0.00 | 45 | 1013.9 |
| 20260504212412 | 73 | 74 | 2.0 | 6.0 | 0.00 | 0.00 | 0.00 | 45 | 1013.7 |
| 20260504211906 | 73 | 340 | 1.0 | 2.0 | 0.00 | 0.00 | 0.00 | 46 | 1013.9 |
| 20260504211400 | 73 | 340 | 1.0 | 4.0 | 0.00 | 0.00 | 0.00 | 46 | 1013.8 |
| 20260504210854 | 73 | 302 | 2.0 | 6.0 | 0.00 | 0.00 | 0.00 | 47 | 1013.8 |
| 20260504210348 | 73 | 117 | 2.0 | 6.0 | 0.00 | 0.00 | 0.00 | 46 | 1013.7 |
| 20260504205842 | 74 | 121 | 2.0 | 6.0 | 0.00 | 0.00 | 0.00 | 43 | 1013.7 |
| 20260504205335 | 74 | 324 | 2.0 | 6.0 | 0.00 | 0.00 | 0.00 | 49 | 1013.7 |
| 20260504204835 | 74 | 104 | 2.0 | 6.0 | 0.00 | 0.00 | 0.00 | 44 | 1013.7 |
| 20260504204335 | 74 | 72 | 2.0 | 9.0 | 0.00 | 0.00 | 0.00 | 43 | 1013.7 |
| 20260504203837 | 74 | 92 | 3.0 | 9.0 | 0.00 | 0.00 | 0.00 | 42 | 1013.8 |
| 20260504203559 | 74 | 88 | 3.0 | 8.0 | 0.00 | 0.00 | 0.00 | 41 | 1013.9 |
| 20260504202835 | 74 | 169 | 2.0 | 7.0 | 0.00 | 0.00 | 0.00 | 39 | 1013.9 |
| 20260504202333 | 74 | 148 | 2.0 | 7.0 | 0.00 | 0.00 | 0.00 | 40 | 1014.0 |
| 20260504201834 | 74 | 234 | 2.0 | 7.0 | 0.00 | 0.00 | 0.00 | 39 | 1014.0 |
| 20260504201333 | 74 | 102 | 3.0 | 9.0 | 0.00 | 0.00 | 0.00 | 37 | 1014.2 |